Lexington Weather

Lexington, Massachusetts, USA

78°F
8/3/2020 8:20am 
  • Lexington Conditions: Few Clouds
  • Temperature: 78.4°F / 25.8°CWarmer 1.9°F than last hour.
  • Dew Point: 72.1°FDecreased 1.8°Fsince last hour.
  • Relative Humidity: 81%Decreased 11.0% since last hour.
  • Wind: Wind from W W 1 mph, 10-min avg: 4 mph, gust: 10 mph
  • Barometer: 29.86 inRising 0.02  inHg/hr Rising Slowly
  • Visibility: 10 miles
  • Rain Today: 0.00 in
  •   
Southeast Middlesex County - Tropical Storm Watch - Tropical Cyclone Statement
 - SEE ALL NEARBY ALERTS -

Regional Weather Roundup
for Boston / Norton, MA

        
000
ASUS41 KBOX 020504
RWRBOX

REGIONAL WEATHER ROUNDUP
NATIONAL WEATHER SERVICE BOSTON/NORTON MA
100 AM EDT SUN AUG 02 2020

NOTE:  "FAIR" INDICATES FEW OR NO CLOUDS BELOW 12,000 FEET WITH NO 
SIGNIFICANT WEATHER AND/OR OBSTRUCTIONS TO VISIBILITY.

MAZALL-020600-
EASTERN MASSACHUSETTS
  
CITY           SKY/WX    TMP DP  RH WIND       PRES   REMARKS
BOSTON         PTCLDY    72  67  84 S7        29.98F                  
BEVERLY        CLEAR     72  67  84 CALM      29.98S                  
LAWRENCE       CLEAR     72  65  78 CALM      30.00S                  
BEDFORD        CLEAR     73  68  84 CALM      29.97F                  
BLUE HILL      NOT AVBL                                               
NORWOOD        CLEAR     74  68  81 S5        29.98F                  
MARSHFIELD     CLEAR     73  72  94 SW5       29.98F                  
PLYMOUTH       CLEAR     72  68  87 CALM      30.00F                  
TAUNTON        CLEAR     72  68  87 CALM      29.99F                  
NEW BEDFORD    CLEAR     72  70  93 SW3       29.99F                  
$$

MAZALL-020600-
CAPE COD AND THE ISLANDS
  
CITY           SKY/WX    TMP DP  RH WIND       PRES   REMARKS
FALMOUTH       CLEAR     70  66  88 SW5       30.01F                  
HYANNIS        CLEAR     75  67  76 S6        29.99F                  
CHATHAM        CLEAR     73  66  78 SW5       30.02S                  
PROVINCETOWN   CLEAR     73  69  87 S6        30.01S                  
NANTUCKET      CLEAR     67  65  93 SW6       30.01F                  
MARTHAS VNYRD  CLEAR     70  69  97 S3        30.00F                  
$$
 
MAZALL-020600-
CENTRAL AND WESTERN MASSACHUSETTS
  
CITY           SKY/WX    TMP DP  RH WIND       PRES   REMARKS
WORCESTER      PTCLDY    70  62  76 SW8       30.02F                  
FITCHBURG      CLEAR     68  63  84 CALM      29.99F                  
ORANGE         PTCLDY    68  66  93 CALM      30.00S                  
SPRINGFIELD    CLOUDY    74  64  70 S5        29.96F                  
WESTFIELD      MOCLDY    75  62  64 S5        29.97S                  
NORTH ADAMS    MOCLDY    68  61  78 SE5       29.99S                  
PITTSFIELD     CLOUDY    68  62  81 CALM      30.00S                  
$$
 
RIZALL-020600-
RHODE ISLAND
  
CITY           SKY/WX    TMP DP  RH WIND       PRES   REMARKS
PROVIDENCE     CLEAR     73  70  90 S7        30.00F                  
NEWPORT        CLEAR     75  71  87 S5        30.00F                  
BLOCK ISLAND   CLEAR     73  70  90 SW7       30.01S                  
SMITHFIELD     PTCLDY    70  69  97 CALM      30.01F                  
WESTERLY       CLEAR     73  69  87 S3        30.00F                  
$$
 
CTZALL-020600-
CONNECTICUT
  
CITY           SKY/WX    TMP DP  RH WIND       PRES   REMARKS
BRADLEY INTL   MOCLDY    77  64  64 S7        29.97S                  
HARTFORD       MOCLDY    76  67  73 S5        29.97S                  
BRIDGEPORT     PTCLDY    76  71  85 S3        29.97F                  
DANBURY        MOCLDY    74  68  81 VRB3      29.99F                  
GROTON         PTCLDY    72  69  90 CALM      29.99S                  
NEW HAVEN      PTCLDY    75  72  90 CALM      29.98F                  
CHESTER        NOT AVBL                                               
MERIDEN        PTCLDY    72  65  78 CALM      29.97F                  
WILLIMANTIC    PTCLDY    74  66  76 S3        30.00R                  
OXFORD         MOCLDY    72  67  84 CALM      30.01F                  
$$

MEZ002-015-021-024-NHZ003-005-008-011-012-014-VTZ005-008-020600-
NORTHERN NEW ENGLAND
  
CITY           SKY/WX    TMP DP  RH WIND       PRES   REMARKS
PORTLAND ME    CLEAR     72  61  68 CALM      29.98F                  
BANGOR ME      PTCLDY    69  64  84 S6        29.98S                  
CONCORD NH     PTCLDY    69  62  78 E3        29.99S                  
MANCHESTER NH  MOCLDY    73  62  68 SE3       29.97S                  
NASHUA NH      CLEAR     69  65  86 NW3       29.99S                  
PORTSMOUTH NH  PTCLDY    68  61  76 CALM      29.97F                  
JAFFREY NH     PTCLDY    66  63  90 CALM      30.02F                  
KEENE NH       PTCLDY    64  63  96 CALM      29.99F                  
BURLINGTON VT  MOCLDY    71  63  75 E3        29.94F                  
MT. WASHINGTON PTCLDY    54  52  94 S8          N/A                   
$$

NYZ052-076-020600-
EASTERN NEW YORK
  
CITY           SKY/WX    TMP DP  RH WIND       PRES   REMARKS
ALBANY         MOCLDY    73  62  68 CALM      29.95S                  
NEW YORK CITY  MOCLDY    80  70  71 S6        29.96S                  
$$
 
ANZALL-020600-
MARINE OBSERVATIONS
  
STATION/POSITION TIME  TEMP    WIND        PRES    VSBY  WAVE
                       AIR SEA DIR/SP/G                  HT/PER
                 (UTC) (F)     (DEG/KT/KT) (MB)    (MI)  (FT/S)
BOSTON BUOY      0450   71 71  170/  6/  6 1014.0F         1/10
BUZZARDS BAY     0400          190/ 12/ 12 1017.0R
NANTUCKET SOUND  0440      76  210/ 10/ 12 1015.3F
MASS BAY-STELLWA 0404   73     210/  8/ 10 1013.3S  1 3/4  2/ 8
ISLE OF SHOALS   NOT AVBL
S OF BLOCK IS    0426      73                N/A           3/11
$$

......................KEY.........................
  SKY/WX - SKY CONDITION/PRESENT WEATHER
  TMP    - TEMPERATURE IN FAHRENHEIT
  DWPT   - DEWPOINT IN FAHRENHEIT
  RH     - RELATIVE HUMIDITY IN PERCENT
  WIND   - DIRECTION AND SPEED IN MPH
  PRES   - MEAN SEA LEVEL PRESSURE IN INCHES OF HG
  WCI    - WIND CHILL INDEX
  VSB    - VISIBILITY IN MILES
  HX     - HEAT INDEX
  TC     - TEMPERATURE IN CELSIUS
  VRB    - VARIABLE WIND DIRECTION
  N/A    - NOT AVAILABLE
  
      

Other recent Regional Weather Roundups

Mon Aug 3, 8:04am

Mon Aug 3, 7:04am

Mon Aug 3, 6:04am

Mon Aug 3, 5:04am

Mon Aug 3, 4:04am

Mon Aug 3, 3:04am

Mon Aug 3, 2:04am

Mon Aug 3, 1:04am

Mon Aug 3, 12:05am

Sun Aug 2, 11:04pm

Sun Aug 2, 10:04pm

Sun Aug 2, 9:04pm

Sun Aug 2, 8:04pm

Sun Aug 2, 7:04pm

Sun Aug 2, 6:04pm

Sun Aug 2, 5:04pm

Sun Aug 2, 4:05pm

Sun Aug 2, 3:04pm

Sun Aug 2, 2:05pm

Sun Aug 2, 1:04pm

Sun Aug 2, 12:04pm

Sun Aug 2, 11:04am

Sun Aug 2, 10:04am

Sun Aug 2, 9:05am

Sun Aug 2, 8:05am

Sun Aug 2, 7:04am

Sun Aug 2, 6:04am

Sun Aug 2, 5:04am

Sun Aug 2, 4:05am

Sun Aug 2, 3:04am

Sun Aug 2, 2:04am

Sun Aug 2, 12:05am

Sat Aug 1, 11:04pm

Sat Aug 1, 10:04pm

Sat Aug 1, 9:04pm

Sat Aug 1, 8:05pm

Sat Aug 1, 7:04pm

Sat Aug 1, 6:04pm

Sat Aug 1, 5:05pm

Sat Aug 1, 4:05pm

Sat Aug 1, 3:04pm

Sat Aug 1, 2:04pm

Sat Aug 1, 1:04pm

Sat Aug 1, 12:04pm

Sat Aug 1, 11:05am

Sat Aug 1, 10:05am

Sat Aug 1, 9:04am

Sat Aug 1, 8:04am

Sat Aug 1, 7:04am

Sat Aug 1, 6:04am

Sat Aug 1, 5:04am

Sat Aug 1, 4:05am

Sat Aug 1, 3:04am

Sat Aug 1, 2:04am

Sat Aug 1, 1:04am

Sat Aug 1, 12:05am

Fri Jul 31, 11:05pm

Fri Jul 31, 10:04pm

Fri Jul 31, 9:04pm

Fri Jul 31, 8:05pm

Fri Jul 31, 7:05pm

Fri Jul 31, 6:04pm

Fri Jul 31, 5:04pm

Fri Jul 31, 4:05pm

Fri Jul 31, 3:04pm

Fri Jul 31, 2:05pm

Fri Jul 31, 1:04pm

Fri Jul 31, 12:04pm

Fri Jul 31, 11:04am

Fri Jul 31, 10:04am

Fri Jul 31, 9:04am

Fri Jul 31, 8:04am

Fri Jul 31, 7:04am

Fri Jul 31, 6:04am

Fri Jul 31, 5:04am

Fri Jul 31, 4:04am

Fri Jul 31, 3:04am

Fri Jul 31, 2:04am

Fri Jul 31, 1:05am

Fri Jul 31, 12:04am

Thu Jul 30, 11:04pm

Thu Jul 30, 10:04pm

Thu Jul 30, 9:04pm

Thu Jul 30, 8:04pm

Thu Jul 30, 7:05pm

Thu Jul 30, 6:04pm

Thu Jul 30, 5:04pm

Thu Jul 30, 4:05pm

Thu Jul 30, 3:04pm

Thu Jul 30, 2:05pm

Thu Jul 30, 1:04pm

Thu Jul 30, 12:04pm

Thu Jul 30, 11:04am

Thu Jul 30, 10:05am

Thu Jul 30, 9:04am

Thu Jul 30, 8:04am

Thu Jul 30, 7:04am

Thu Jul 30, 6:04am

Thu Jul 30, 5:04am

Thu Jul 30, 4:04am

Thu Jul 30, 3:04am

Thu Jul 30, 2:04am

Thu Jul 30, 1:04am

Thu Jul 30, 12:04am

Wed Jul 29, 11:04pm

Wed Jul 29, 10:04pm

Wed Jul 29, 9:04pm

Wed Jul 29, 8:04pm

Wed Jul 29, 7:05pm

Wed Jul 29, 6:05pm

Wed Jul 29, 5:04pm

Wed Jul 29, 4:04pm

Wed Jul 29, 3:04pm

Wed Jul 29, 2:04pm

Wed Jul 29, 1:05pm

Wed Jul 29, 12:05pm

Wed Jul 29, 11:04am

Wed Jul 29, 10:04am

Wed Jul 29, 9:04am

Wed Jul 29, 8:04am

Wed Jul 29, 7:04am

Wed Jul 29, 6:04am

Wed Jul 29, 5:04am

Wed Jul 29, 4:04am

Wed Jul 29, 3:04am

Wed Jul 29, 2:04am

Wed Jul 29, 1:04am

Wed Jul 29, 12:05am

Tue Jul 28, 11:05pm

Tue Jul 28, 10:05pm

Tue Jul 28, 9:04pm

Tue Jul 28, 8:04pm

Tue Jul 28, 7:04pm

Tue Jul 28, 6:04pm

Tue Jul 28, 5:04pm

Tue Jul 28, 4:05pm

Tue Jul 28, 3:05pm

Tue Jul 28, 2:04pm

Tue Jul 28, 1:05pm

Tue Jul 28, 12:04pm

Tue Jul 28, 11:04am

Tue Jul 28, 10:04am

Tue Jul 28, 9:04am

Tue Jul 28, 8:04am

Tue Jul 28, 7:04am

Tue Jul 28, 6:04am

Tue Jul 28, 5:04am

Tue Jul 28, 4:04am

Tue Jul 28, 3:04am

Tue Jul 28, 2:04am

Tue Jul 28, 1:04am

Tue Jul 28, 12:05am

Mon Jul 27, 11:04pm

Mon Jul 27, 10:05pm

Mon Jul 27, 9:05pm

Mon Jul 27, 8:04pm

Mon Jul 27, 7:04pm

Mon Jul 27, 6:05pm

Mon Jul 27, 5:05pm

Mon Jul 27, 4:04pm

Mon Jul 27, 3:04pm

Mon Jul 27, 2:04pm

Mon Jul 27, 1:04pm

Mon Jul 27, 12:04pm

Mon Jul 27, 11:04am

Mon Jul 27, 10:04am

Mon Jul 27, 9:04am

Meta data:

ID: 76d4b1da-68ce-4457-ab15-e76b3aa47b9b
Link: https://api.weather.gov/products/76d4b1da-68ce-4457-ab15-e76b3aa47b9b